Regional Weather Roundup
Issued by NWS Cleveland, OH

Home | Current Version | Previous Version | Graphics & Text | Print | Product List | Glossary On
Versions: 1 2 3 4 5 6 7 8 9 10 11 12 13 14 15 16 17 18 19 20 21 22 23 24 25 26 27 28 29 30 31 32 33 34 35 36 37 38 39 40 41 42 43 44 45 46 47 48 49 50
000
ASUS41 KCLE 232302
RWRCLE
OHIO REGIONAL WEATHER ROUNDUP
NATIONAL WEATHER SERVICE CLEVELAND, OH
700 PM EDT SAT SEP 23 2017

NOTE: "FAIR" INDICATES FEW OR NO CLOUDS BELOW 12,000 FEET WITH NO
SIGNIFICANT WEATHER AND/OR OBSTRUCTIONS TO VISIBILITY.

OHZ001>008-015>018-024>027-034-035-043-044-240000-
   NORTHWEST OHIO

CITY           SKY/WX    TMP DP  RH WIND       PRES   REMARKS
DEFIANCE       CLEAR     85  63  47 E5        30.09S
FINDLAY        CLEAR     85  60  42 E8        30.09S
TOLEDO EXPRESS CLEAR     83  61  47 E6        30.09S
TOLEDO EXEC    CLEAR     82  62  50 E5        30.11S
LIMA           CLEAR     84  62  47 NE5       30.09S
$$

OHZ009>014-019>023-028>033-038-089-240000-
   NORTHEAST OHIO

CITY           SKY/WX    TMP DP  RH WIND       PRES   REMARKS
CLE-HOPKINS    CLEAR     82  53  36 N6        30.13S
CLE-LAKEFRONT  CLEAR     75  66  73 NE6       30.10F
CUY CO. ARPT   CLEAR     81  63  54 NE6       30.13S
LORAIN-ELYRIA  CLEAR     80  50  34 NE6       30.12S
ASHTABULA      CLEAR     80  60  50 CALM      30.14S
AKRON-CANTON   PTCLDY    83  59  44 E6        30.13R
WOOSTER        CLEAR     81  62  52 E5        30.13R
MANSFIELD      CLEAR     82  60  47 NE7       30.13S
YOUNGSTOWN     PTCLDY    83  61  47 N5        30.13S
$$

OHZ042-051>053-060>062-070>072-077>081-240000-
  SOUTHWEST OHIO

CITY           SKY/WX    TMP DP  RH WIND       PRES   REMARKS
CINC-COVINGTON PTCLDY    86  64  47 E8        30.07S
CINC-LUNKEN    PTCLDY    88  68  51 CALM      30.06S HX  91
HAMILTON       CLEAR     83  72  69 CALM      30.07S
DAYTON         PTCLDY    83  59  44 E7        30.09S
WRIGHT-PAT AFB NOT AVBL
DAYTON GENERAL CLEAR     85  59  41 E5        30.08R
WILMINGTON     CLEAR     83  62  49 E6        30.09R
$$

OHZ036-037-039>041-045>050-054>059-063>069-073>076-082>088-240000-
  CENTRAL AND SOUTHEAST OHIO

CITY           SKY/WX    TMP DP  RH WIND       PRES   REMARKS
COLUMBUS       PTCLDY    86  61  42 E7        30.08S
OSU AIRPORT    CLEAR     83  64  52 E8        30.09S
BOLTON FIELD   CLEAR     84  61  45 SE5       30.10R
RICKENBACK AFB CLEAR     82  60  48 SE3       30.08S
NEWARK         CLEAR     82  62  50 CALM      30.09S
MARION         CLEAR     84  58  40 E7        30.11R
LANCASTER      CLEAR     78  64  61 CALM      30.10S
ZANESVILLE     CLEAR     85  58  39 NE5       30.10S
NEW PHILLY     NOT AVBL
$$




USA.gov is the U.S. government's official web portal to all federal, state and local government web resources and services.